Regional Weather Roundup
Issued by NWS

Home | Current Version | Previous Version | Text Only | Print | Product List | Glossary On
Versions: 1 2 3 4 5 6 7 8 9 10 11 12 13 14 15 16 17 18 19 20 21 22 23 24 25 26 27 28 29 30 31 32 33 34 35 36 37 38 39 40 41 42 43 44 45 46 47 48 49 50
000
ASCA44 KEWX 280520
RWRMX

LATIN AMERICA AND CARIBBEAN REGIONAL WEATHER ROUNDUP
NATIONAL WEATHER SERVICE AUSTIN/SAN ANTONIO TX
1200 AM CDT FRI AUG 28 2015

NOTE: "FAIR" INDICATED FEW OR NO CLOUDS BELOW 12,000 FEET WITH NO
SIGNIFICANT WEATHER AND/OR OBSTRUCTIONS TO VISIBILITY.

BAJA CALIFORNIA

CITY           SKY/WX    TMP DP  RH WIND       PRES   REMARKS
LA PAZ         CLEAR     86  72  62 S10       29.89R HX  92
MEXICALI       CLEAR     93  66  40 S7        29.81R HX  96
S.J. DEL CABO  CLEAR     82  73  74 W3        29.89R
TIJUANA        CLEAR     75  61  60 CALM      29.96R

NORTHWESTERN MEXICO

CITY           SKY/WX    TMP DP  RH WIND       PRES   REMARKS
CULIACAN       CLEAR     88  77  70 CALM      29.87R HX 100
HERMOSILLO     CLOUDY    86  72  62 CALM      29.89S HX  92
CD. JUAREZ       N/A    N/A N/A N/A MISG        N/A
LOS MOCHIS       N/A    N/A N/A N/A MISG        N/A
OBREGON        PTCLDY    84  68  58 S2        29.81S

NORTHEASTERN MEXICO

CITY           SKY/WX    TMP DP  RH WIND       PRES   REMARKS
CHIHUAHUA      PTCLDY    72  48  43 S6        30.16R
MONTERREY      CLEAR     75  59  57 SE6       30.06R
SALTILLO       CLEAR     72  59  64 N7        30.24S

WESTERN MEXICO

CITY           SKY/WX    TMP DP  RH WIND       PRES   REMARKS
AGUASCALIENTES PTCLDY    66  50  55 NW2       30.31R
DEL BAJIO      PTCLDY    66  52  59 E14       30.34R
GUADALAJARA    PTCLDY    66  61  82 CALM      30.20R
MAZATLAN       PTCLDY    81  75  83 N9        29.85R
P. VALLARTA    CLOUDY    77  75  94 N7        29.89R
ZACATECAS      CLEAR     63  41  45 SE14      30.32S

CENTRAL MEXICO

CITY           SKY/WX    TMP DP  RH WIND       PRES   REMARKS
MEXICO CITY    MOCLDY    63  48  59 N9        30.40R
PUEBLA         CLOUDY    59  50  72 N8        30.38R
QUERETARO      PTCLDY    57  52  82 SE6       30.40R
S. LUIS POTOSI PTCLDY    63  55  77 S6        30.33R
TAMPICO        PTCLDY    77  70  78 S3        30.01R
TOLUCA         PTCLDY    55  46  71 NW7       30.45R

SOUTHERN MEXICO

CITY           SKY/WX    TMP DP  RH WIND       PRES   REMARKS
ACAPULCO       MOCLDY    86  75  70 NW7       29.90S HX  95
OAXACA         MOCLDY    66  63  88 NW2       30.26R
VERACRUZ         N/A    N/A N/A N/A MISG        N/A

YUCATAN PENINSULA

CITY           SKY/WX    TMP DP  RH WIND       PRES   REMARKS
CANCUN         MOCLDY    79  77  94 SE6       29.97S
CD. DEL CARMEN RAIN      81  75  83 SE13      29.97R
COZUMEL        PTCLDY    73  73 100 CALM      29.98S
MERIDA         MOCLDY    77  75  94 S5        29.98S
TAPACHULA      RAIN      73  72  94 NE12      29.95R
TUX. GUTIERREZ CLOUDY    73  68  83 CALM      30.02R

CENTRAL AMERICA

CITY           SKY/WX    TMP DP  RH WIND       PRES   REMARKS
MANAGUA        PTCLDY    81  73  78 SE5       29.86S

CARIBBEAN

CITY           SKY/WX    TMP DP  RH WIND       PRES   REMARKS
CURACAO        PTCLDY    82  79  89 E5        29.89S HX  93
NASSAU         MOCLDY    81  73  78 VRB2      30.01F
SAN JUAN       LGT RAIN  81  72  74 E14G21    29.91S
SANTO DOMINGO  PTCLDY    79  77  94 N6        29.89F
ST. CROIX      LGT RAIN  79  72  78 SE25G36   29.95
ST. MAARTEN    LGT RAIN  81  72  74 E13       29.97F
ST. THOMAS     CLOUDY    82  73  74 SE23G38   29.94

$$




USA.gov is the U.S. government's official web portal to all federal, state and local government web resources and services.